Location: Unspecified
(0.0000°N, 0.0000°E)
Time: 11:35:20
(UTC+00:00)

TRS 6 - Pass Details

Date: 19 February 2019
Orbit: 3561 x 3726 km, 87.3° (Epoch: 14 October)

Event Time Altitude Azimuth Distance (km) Brightness Sun altitude
Rises 21:47:24 0° 209° (SSW) 7,713 ? -52.0°
Reaches altitude 10° 21:53:45 10° 223° (SW) 6,703 ? -53.5°
Maximum altitude 22:06:00 21° 266° (W) 5,815 ? -56.4°
Drops below altitude 10° 22:18:41 10° 309° (NW) 6,780 ? -59.3°
Sets 22:25:35 0° 325° (NW) 7,825 ? -60.9°
